Weather History for Tekamah, NE

Change the Weather History Date:

Tuesday, June 25, 2013

  Actual Average Record
Temperature  
Mean Temperature 78 °F -  
Max Temperature 88 °F 87 °F 104 °F (1954)
Min Temperature 69 °F 62 °F 42 °F (1958)
Cooling Degree Days 14    
Growing Degree Days 28 (Base 50)    
Moisture  
Dew Point 71 °F    
Average Humidity 79    
Maximum Humidity 94    
Minimum Humidity 58    
Precipitation  
Precipitation 0.37 in - - ()
Sea Level Pressure  
Sea Level Pressure 29.71 in    
Wind  
Wind Speed 10 mph (South)    
Max Wind Speed 29 mph    
Max Gust Speed 39 mph    
Visibility 7 miles    
Events Rain , Thunderstorm    
Averages and records for this station are not official NWS values.
T = Trace of Precipitation, MM = Missing Value Source: NWS Daily Summary

Daily Weather History Graph

Daily Weather History Graph

Search for Another Location

Airport:

Trip Planner

Search our weather history database for the weather conditions in past years. The results will help you decide how hot, cold, wet, or windy it might be!

Date:

Astronomy

Jun. 25, 2013 Rise Set
Actual Time 5:51 AM CDT 9:03 PM CDT
Civil Twilight 5:17 AM CDT 9:37 PM CDT
Nautical Twilight 4:32 AM CDT 10:21 PM CDT
Astronomical Twilight 3:39 AM CDT 11:14 PM CDT
Moon 10:46 PM CDT (6/25) 8:35 AM CDT (6/25)
Length of Visible Light 16h 20m
Length of Day
15h 12m
Waning Gibbous, 92% of the Moon is Illuminated
Jun 25
Waning Gibbous
Jun 29
Last Quarter
Jul 8
New
Jul 15
First Quarter
Jul 22
Full

Hourly Weather History & Observations

Time (CDT) Temp. Heat Index Dew Point Humidity Pressure Visibility Wind Dir Wind Speed Gust Speed Precip Events Conditions
12:54 AM 75.0 °F - 71.1 °F 87% 29.70 in 7.0 mi SE 5.8 mph - N/A   Clear
1:54 AM 77.0 °F - 69.1 °F 76% 29.75 in 9.0 mi SW 13.8 mph - 0.00 in Rain Light Rain
2:03 AM 77.0 °F - 69.8 °F 78% 29.80 in 8.0 mi WSW 9.2 mph - N/A Thunderstorm Thunderstorm
2:27 AM 75.2 °F - 69.8 °F 83% 29.77 in 8.0 mi South 8.1 mph - 0.00 in   Clear
2:54 AM 73.9 °F - 70.0 °F 87% 29.72 in 7.0 mi South 6.9 mph - 0.00 in   Clear
3:54 AM 73.0 °F - 69.1 °F 87% 29.69 in 8.0 mi SSE 6.9 mph - N/A   Clear
4:54 AM 73.0 °F - 69.1 °F 87% 29.70 in 7.0 mi South 9.2 mph - N/A   Clear
5:54 AM 73.0 °F - 69.1 °F 87% 29.70 in 7.0 mi West 9.2 mph - N/A   Mostly Cloudy
6:54 AM 73.9 °F - 70.0 °F 87% 29.71 in 6.0 mi WSW 8.1 mph - N/A Thunderstorm Overcast
7:05 AM 75.2 °F - 69.8 °F 83% 29.79 in 1.8 mi SSW 28.8 mph 39.1 mph 0.07 in Rain , Thunderstorm Light Thunderstorms and Rain
7:16 AM 71.6 °F - 66.2 °F 83% 29.78 in 2.5 mi SW 21.9 mph 31.1 mph 0.15 in Rain , Thunderstorm Light Thunderstorms and Rain
7:23 AM 71.6 °F - 66.2 °F 83% 29.78 in 10.0 mi WSW 20.7 mph 29.9 mph 0.15 in Rain , Thunderstorm Light Thunderstorms and Rain
7:49 AM 71.6 °F - 68.0 °F 88% 29.78 in 1.8 mi West 8.1 mph - 0.19 in Rain , Thunderstorm Rain
7:54 AM 71.1 °F - 68.0 °F 90% 29.73 in 1.8 mi WNW 4.6 mph - 0.19 in Rain , Thunderstorm Light Thunderstorms and Rain
8:22 AM 69.8 °F - 68.0 °F 94% 29.77 in 3.0 mi SSE 12.7 mph - 0.18 in Rain , Thunderstorm Light Rain
8:25 AM 71.6 °F - 68.0 °F 88% 29.78 in 5.0 mi South 9.2 mph - 0.18 in Rain , Thunderstorm Light Thunderstorms and Rain
8:46 AM 71.6 °F - 68.0 °F 88% 29.77 in 10.0 mi Calm Calm - 0.18 in   Partly Cloudy
8:54 AM 71.1 °F - 68.0 °F 90% 29.74 in 10.0 mi ESE 3.5 mph - 0.18 in   Clear
9:54 AM 79.0 °F - 70.0 °F 74% 29.74 in 10.0 mi SE 8.1 mph - N/A   Clear
10:54 AM 82.9 °F 87.0 °F 70.0 °F 65% 29.73 in 10.0 mi SE 9.2 mph - N/A   Partly Cloudy
11:54 AM 84.0 °F 87.0 °F 68.0 °F 58% 29.69 in 10.0 mi SSE 12.7 mph - N/A   Clear
12:54 PM 84.0 °F 87.0 °F 68.0 °F 58% 29.68 in 10.0 mi SSE 18.4 mph 23.0 mph N/A   Clear
1:54 PM 87.1 °F 92.8 °F 71.1 °F 59% 29.66 in 10.0 mi South 11.5 mph - N/A   Clear
2:54 PM 88.0 °F 95.6 °F 73.0 °F 61% 29.66 in 10.0 mi South 16.1 mph 23.0 mph N/A   Scattered Clouds
3:54 PM 86.0 °F 93.0 °F 73.0 °F 65% 29.65 in 8.0 mi South 11.5 mph - N/A   Mostly Cloudy
4:54 PM 84.9 °F 92.1 °F 73.9 °F 69% 29.65 in 8.0 mi South 9.2 mph - N/A   Overcast
5:54 PM 86.0 °F 95.1 °F 75.0 °F 70% 29.64 in 7.0 mi SSE 8.1 mph - N/A   Partly Cloudy
6:54 PM 84.9 °F 92.1 °F 73.9 °F 69% 29.63 in 7.0 mi SE 6.9 mph - N/A   Partly Cloudy
7:54 PM 84.0 °F 91.9 °F 75.0 °F 74% 29.64 in 7.0 mi ESE 6.9 mph - N/A   Clear
8:54 PM 81.0 °F 86.7 °F 75.0 °F 82% 29.64 in 6.0 mi ESE 3.5 mph - N/A   Haze
9:54 PM 79.0 °F - 75.0 °F 88% 29.65 in 7.0 mi East 3.5 mph - N/A   Mostly Cloudy
10:54 PM 78.1 °F - 75.0 °F 90% 29.65 in 6.0 mi East 3.5 mph - N/A   Clear
11:54 PM 75.9 °F - 73.9 °F 94% 29.64 in 5.0 mi Calm Calm - N/A   Scattered Clouds